Flag for France Weather past 2 weeks in Strasbourg, France

Now
27 °F

Partly sunny.


Feels Like: 13 °F
Forecast: 17 / 34 °F
Wind: 21 mph from Northeast

Location: Strasbourg Airport

Current Time: Dec 28, 2014 at 4:21:54 PM

Latest Report: Dec 28, 2014 at 3:30 PM


Visibility: N/A

Pressure: 30.21 "Hg

Humidity: 69%

Dew point: 18 °F

Location of StrasbourgLocation

Historic Weather in Strasbourg — Graph

°F

Strasbourg temperature yesterday

Maximum temperature yesterday: 39 °F (at 1:00 PM)
Minimum temperature yesterday: 32 °F (at 7:00 AM)
Average temperature yesterday: 35 °F

Past Weeks' High & Low Weather Summary

 TemperatureHumidityPressure
High57 °F (Dec 18, 8:00 PM)100% (Dec 13, 11:30 PM)30.54 "Hg (Dec 13, 11:30 PM)
Low27 °F (Dec 28, 11:00 AM)44% (Dec 15, 2:30 PM)29.42 "Hg (Dec 27, 4:00 PM)
Average43 °F84%30.13 "Hg
* Reported Dec 13 3:00 PM — Dec 28 3:00 PM, Strasbourg, Weather by CustomWeather, © 2014

Note: Actual official high and low records may vary slightly from our data, if they occured in-between our weather recording intervals... More about our weather records

Advertising

Strasbourg weather history for previous 24 hours

 ConditionsComfort  
Time TempWeatherWind HumidityBarometerVisibility
3:00 PM
Dec 28
28 °FPassing clouds.21 mph69%30.18 "HgN/A
2:30 PM28 °FPassing clouds.20 mph69%30.15 "HgN/A
2:00 PM28 °FBroken clouds.17 mph74%30.12 "HgN/A
1:30 PM28 °FMostly cloudy.18 mph74%30.09 "HgN/A
1:00 PM28 °FMostly cloudy.20 mph80%30.09 "HgN/A
12:30 PM28 °FMostly cloudy.18 mph80%30.07 "HgN/A
12:00 PM28 °FOvercast.18 mph80%30.07 "HgN/A
11:30 AM27 °FOvercast.20 mph86%30.04 "HgN/A
11:00 AM27 °FLight snow. Overcast.20 mph93%30.01 "Hg4 mi
10:30 AM28 °FLight snow. Overcast.20 mph86%29.98 "Hg4 mi
10:00 AM28 °FLight snow. Overcast.18 mph86%29.95 "HgN/A
9:30 AM28 °FOvercast.20 mph86%29.92 "HgN/A
9:00 AM28 °FOvercast.20 mph86%29.89 "HgN/A
8:30 AM28 °FOvercast.22 mph86%29.86 "HgN/A
8:00 AM30 °FOvercast.22 mph86%29.83 "HgN/A
7:30 AM30 °FOvercast.21 mph86%29.80 "HgN/A
7:00 AM30 °FOvercast.18 mph86%29.77 "HgN/A
6:30 AM30 °FOvercast.18 mph86%29.74 "HgN/A
6:00 AM30 °FOvercast.18 mph93%29.71 "HgN/A
5:30 AM30 °FOvercast.18 mph93%29.68 "HgN/A
5:00 AM32 °FOvercast.17 mph87%29.68 "HgN/A
4:30 AM32 °FLight snow. Mostly cloudy.21 mph87%29.65 "Hg4 mi
4:00 AM32 °FLight snow. Low clouds.17 mph93%29.62 "Hg4 mi
3:30 AM32 °FLight snow. Ice fog.18 mph93%29.59 "Hg3 mi
3:00 AM32 °FLight snow. Ice fog.13 mph100%29.56 "Hg3 mi
2:30 AM34 °FLight rain. Low clouds.3 mph93%29.56 "Hg5 mi
2:00 AM34 °FLight snow. Fog.6 mph93%29.53 "Hg2 mi
1:30 AM34 °FLight snow. Overcast.5 mph93%29.50 "Hg4 mi
1:00 AM34 °FLight snow. Mostly cloudy.5 mph93%29.50 "Hg4 mi
12:30 AM34 °FLight snow. Mostly cloudy.5 mph93%29.50 "Hg4 mi
12:00 AM34 °FLight rain. Overcast.6 mph93%29.50 "HgN/A
11:30 PM
Dec 27
34 °FLight snow. Mostly cloudy.6 mph93%29.47 "HgN/A
11:00 PM34 °FLight rain. Partly cloudy.6 mph93%29.47 "HgN/A
10:30 PM36 °FLight rain. Mostly cloudy.7 mph93%29.47 "HgN/A
10:00 PM36 °FPartly cloudy.8 mph87%29.47 "HgN/A
9:30 PM36 °FLight rain. Passing clouds.7 mph87%29.45 "HgN/A
9:00 PM34 °FLight rain. Partly cloudy.9 mph93%29.45 "HgN/A
8:30 PM36 °FLight snow. Fog.10 mph87%29.45 "Hg2 mi
8:00 PM36 °FLight rain. Overcast.9 mph93%29.42 "HgN/A
7:30 PM36 °FLight rain. Mostly cloudy.8 mph93%29.42 "HgN/A
7:00 PM37 °FLight rain. Partly cloudy.12 mph87%29.42 "HgN/A
6:30 PM36 °FLight rain. Partly cloudy.13 mph93%29.42 "HgN/A
6:00 PM37 °FLight rain. Partly cloudy.14 mph87%29.42 "HgN/A
5:30 PM37 °FLight rain. Mostly cloudy.13 mph93%29.42 "HgN/A
5:00 PM37 °FLight rain. Mostly cloudy.16 mph93%29.42 "HgN/A
4:30 PM37 °FLight rain. Mostly cloudy.13 mph93%29.42 "HgN/A
4:00 PM39 °FLight rain. Mostly cloudy.14 mph87%29.42 "HgN/A
Weather by CustomWeather, © 2014

See weather overviewHow to use our weather pages